| time (UTC) | temp F | wind direction | speed MPH | gust MPH | rain 1hr in | rain 24hr in | rain mn in | humidity % | barometer mb |
| 20260509082003 | 51 | 211 | 4.0 | 8.0 | 0.00 | 0.00 | 0.00 | 51 | 1018.6 |
| 20260509081716 | 51 | 210 | 5.0 | 8.0 | 0.00 | 0.00 | 0.00 | 51 | 1018.5 |
| 20260509081003 | 51 | 209 | 5.0 | 8.0 | 0.00 | 0.00 | 0.00 | 50 | 1018.5 |
| 20260509080503 | 52 | 211 | 5.0 | 9.0 | 0.00 | 0.00 | 0.00 | 50 | 1018.5 |
| 20260509080004 | 52 | 213 | 5.0 | 9.0 | 0.00 | 0.00 | 0.00 | 49 | 1018.5 |
| 20260509075503 | 52 | 208 | 4.0 | 9.0 | 0.00 | 0.00 | 0.00 | 49 | 1018.5 |
| 20260509075003 | 52 | 203 | 2.0 | 8.0 | 0.00 | 0.00 | 0.00 | 49 | 1018.4 |
| 20260509074503 | 52 | 205 | 3.0 | 6.0 | 0.00 | 0.00 | 0.00 | 48 | 1018.4 |
| 20260509074217 | 53 | 210 | 3.0 | 7.0 | 0.00 | 0.00 | 0.00 | 48 | 1018.4 |
| 20260509073503 | 53 | 213 | 3.0 | 7.0 | 0.00 | 0.00 | 0.00 | 48 | 1018.3 |
| 20260509073003 | 53 | 210 | 5.0 | 7.0 | 0.00 | 0.00 | 0.00 | 47 | 1018.3 |
| 20260509072503 | 53 | 210 | 6.0 | 9.0 | 0.00 | 0.00 | 0.00 | 48 | 1018.1 |
| 20260509072003 | 53 | 210 | 6.0 | 10.0 | 0.00 | 0.00 | 0.00 | 48 | 1018.1 |
| 20260509071503 | 53 | 210 | 6.0 | 10.0 | 0.00 | 0.00 | 0.00 | 47 | 1018.1 |
| 20260509071003 | 54 | 209 | 6.0 | 10.0 | 0.00 | 0.00 | 0.00 | 46 | 1018.0 |
| 20260509070503 | 54 | 209 | 6.0 | 10.0 | 0.00 | 0.00 | 0.00 | 46 | 1018.0 |
| 20260509070004 | 54 | 211 | 6.0 | 10.0 | 0.00 | 0.00 | 0.00 | 46 | 1018.0 |
| 20260509065503 | 55 | 214 | 6.0 | 12.0 | 0.00 | 0.00 | 0.00 | 45 | 1017.9 |
| 20260509065003 | 55 | 216 | 5.0 | 12.0 | 0.00 | 0.00 | 0.00 | 45 | 1017.9 |
| 20260509064503 | 55 | 214 | 5.0 | 9.0 | 0.00 | 0.00 | 0.00 | 45 | 1017.8 |
| 20260509064003 | 55 | 213 | 5.0 | 9.0 | 0.00 | 0.00 | 0.00 | 46 | 1017.7 |
| 20260509063503 | 55 | 209 | 6.0 | 8.0 | 0.00 | 0.00 | 0.00 | 46 | 1017.7 |
| 20260509063003 | 55 | 213 | 6.0 | 14.0 | 0.00 | 0.00 | 0.00 | 46 | 1017.7 |
| 20260509062503 | 56 | 213 | 6.0 | 14.0 | 0.00 | 0.00 | 0.00 | 45 | 1017.7 |
| 20260509062003 | 56 | 212 | 6.0 | 12.0 | 0.00 | 0.00 | 0.00 | 45 | 1017.6 |
| 20260509061504 | 56 | 216 | 6.0 | 12.0 | 0.00 | 0.00 | 0.00 | 45 | 1017.7 |
| 20260509061003 | 57 | 219 | 6.0 | 12.0 | 0.00 | 0.00 | 0.00 | 44 | 1017.7 |
| 20260509060503 | 57 | 224 | 5.0 | 11.0 | 0.00 | 0.00 | 0.00 | 43 | 1017.7 |
| 20260509060216 | 57 | 223 | 5.0 | 11.0 | 0.00 | 0.00 | 0.00 | 43 | 1017.7 |
| 20260509055717 | 57 | 214 | 6.0 | 10.0 | 0.00 | 0.00 | 0.00 | 43 | 1017.6 |
| 20260509055003 | 57 | 215 | 7.0 | 12.0 | 0.00 | 0.00 | 0.00 | 41 | 1017.5 |
| 20260509054503 | 58 | 219 | 8.0 | 14.0 | 0.00 | 0.00 | 0.00 | 40 | 1017.5 |
| 20260509054218 | 58 | 220 | 8.0 | 14.0 | 0.00 | 0.00 | 0.00 | 39 | 1017.4 |
| 20260509053503 | 58 | 222 | 8.0 | 15.0 | 0.00 | 0.00 | 0.00 | 39 | 1017.4 |
| 20260509053003 | 58 | 219 | 8.0 | 15.0 | 0.00 | 0.00 | 0.00 | 39 | 1017.3 |
| 20260509052503 | 58 | 217 | 9.0 | 15.0 | 0.00 | 0.00 | 0.00 | 39 | 1017.2 |
| 20260509052003 | 59 | 221 | 8.0 | 18.0 | 0.00 | 0.00 | 0.00 | 39 | 1017.1 |
| 20260509051717 | 58 | 222 | 7.0 | 18.0 | 0.00 | 0.00 | 0.00 | 39 | 1017.1 |
| 20260509051003 | 59 | 223 | 6.0 | 18.0 | 0.00 | 0.00 | 0.00 | 39 | 1017.1 |
| 20260509050503 | 58 | 220 | 6.0 | 10.0 | 0.00 | 0.00 | 0.00 | 40 | 1017.0 |
| 20260509050003 | 59 | 221 | 7.0 | 11.0 | 0.00 | 0.00 | 0.00 | 39 | 1017.0 |
| 20260509045717 | 59 | 220 | 7.0 | 11.0 | 0.00 | 0.00 | 0.00 | 39 | 1017.0 |
| 20260509045003 | 60 | 215 | 8.0 | 13.0 | 0.00 | 0.00 | 0.00 | 38 | 1016.9 |
| 20260509044503 | 60 | 214 | 8.0 | 14.0 | 0.00 | 0.00 | 0.00 | 38 | 1016.8 |
| 20260509044218 | 60 | 217 | 8.0 | 14.0 | 0.00 | 0.00 | 0.00 | 38 | 1016.8 |
| 20260509043503 | 60 | 219 | 8.0 | 16.0 | 0.00 | 0.00 | 0.00 | 37 | 1016.6 |
| 20260509043003 | 60 | 219 | 8.0 | 16.0 | 0.00 | 0.00 | 0.00 | 37 | 1016.6 |
| 20260509042503 | 60 | 218 | 8.0 | 16.0 | 0.00 | 0.00 | 0.00 | 37 | 1016.5 |
| 20260509042003 | 60 | 219 | 7.0 | 14.0 | 0.00 | 0.00 | 0.00 | 37 | 1016.6 |
| 20260509041503 | 60 | 216 | 7.0 | 14.0 | 0.00 | 0.00 | 0.00 | 36 | 1016.5 |
| 20260509041003 | 60 | 208 | 6.0 | 14.0 | 0.00 | 0.00 | 0.00 | 36 | 1016.5 |
| 20260509040503 | 60 | 209 | 5.0 | 13.0 | 0.00 | 0.00 | 0.00 | 36 | 1016.5 |
| 20260509040003 | 60 | 213 | 6.0 | 10.0 | 0.00 | 0.00 | 0.00 | 35 | 1016.5 |
| 20260509035503 | 60 | 212 | 6.0 | 13.0 | 0.00 | 0.00 | 0.00 | 35 | 1016.4 |
| 20260509035003 | 60 | 212 | 5.0 | 13.0 | 0.00 | 0.00 | 0.00 | 34 | 1016.5 |
| 20260509034503 | 60 | 215 | 4.0 | 9.0 | 0.00 | 0.00 | 0.00 | 34 | 1016.3 |
| 20260509034218 | 60 | 215 | 4.0 | 9.0 | 0.00 | 0.00 | 0.00 | 34 | 1016.3 |
| 20260509033503 | 60 | 218 | 4.0 | 9.0 | 0.00 | 0.00 | 0.00 | 33 | 1016.2 |
| 20260509033003 | 61 | 216 | 5.0 | 9.0 | 0.00 | 0.00 | 0.00 | 32 | 1016.2 |
| 20260509032503 | 61 | 217 | 6.0 | 9.0 | 0.00 | 0.00 | 0.00 | 32 | 1016.1 |
| 20260509032003 | 61 | 218 | 6.0 | 10.0 | 0.00 | 0.00 | 0.00 | 32 | 1016.1 |
| 20260509031503 | 61 | 216 | 6.0 | 12.0 | 0.00 | 0.00 | 0.00 | 31 | 1016.0 |
| 20260509031003 | 61 | 214 | 6.0 | 12.0 | 0.00 | 0.00 | 0.00 | 31 | 1015.9 |
| 20260509030503 | 61 | 211 | 7.0 | 10.0 | 0.00 | 0.00 | 0.00 | 31 | 1015.9 |
| 20260509030003 | 61 | 210 | 7.0 | 10.0 | 0.00 | 0.00 | 0.00 | 31 | 1015.8 |
| 20260509025503 | 62 | 211 | 6.0 | 12.0 | 0.00 | 0.00 | 0.00 | 31 | 1015.7 |
| 20260509025003 | 62 | 210 | 5.0 | 12.0 | 0.00 | 0.00 | 0.00 | 30 | 1015.7 |
| 20260509024503 | 62 | 213 | 5.0 | 11.0 | 0.00 | 0.00 | 0.00 | 30 | 1015.6 |
| 20260509024003 | 63 | 215 | 5.0 | 11.0 | 0.00 | 0.00 | 0.00 | 30 | 1015.7 |
| 20260509023718 | 63 | 215 | 5.0 | 9.0 | 0.00 | 0.00 | 0.00 | 29 | 1015.7 |
| 20260509023003 | 63 | 221 | 7.0 | 10.0 | 0.00 | 0.00 | 0.00 | 28 | 1015.6 |
| 20260509022718 | 64 | 223 | 7.0 | 10.0 | 0.00 | 0.00 | 0.00 | 28 | 1015.6 |
| 20260509022003 | 64 | 225 | 8.0 | 13.0 | 0.00 | 0.00 | 0.00 | 27 | 1015.6 |
| 20260509021503 | 64 | 222 | 8.0 | 13.0 | 0.00 | 0.00 | 0.00 | 26 | 1015.6 |
| 20260509021003 | 65 | 219 | 9.0 | 15.0 | 0.00 | 0.00 | 0.00 | 24 | 1015.5 |
| 20260509020503 | 65 | 220 | 9.0 | 19.0 | 0.00 | 0.00 | 0.00 | 23 | 1015.6 |
| 20260509020003 | 65 | 220 | 10.0 | 19.0 | 0.00 | 0.00 | 0.00 | 22 | 1015.5 |
| 20260509015718 | 65 | 220 | 10.0 | 19.0 | 0.00 | 0.00 | 0.00 | 21 | 1015.5 |
| 20260509015003 | 65 | 220 | 9.0 | 17.0 | 0.00 | 0.00 | 0.00 | 19 | 1015.4 |
| 20260509014503 | 66 | 222 | 8.0 | 17.0 | 0.00 | 0.00 | 0.00 | 19 | 1015.4 |
| 20260509014003 | 66 | 222 | 8.0 | 17.0 | 0.00 | 0.00 | 0.00 | 20 | 1015.4 |
| 20260509013503 | 65 | 221 | 9.0 | 14.0 | 0.00 | 0.00 | 0.00 | 19 | 1015.5 |
| 20260509013003 | 65 | 222 | 11.0 | 19.0 | 0.00 | 0.00 | 0.00 | 20 | 1015.4 |
| 20260509012503 | 66 | 224 | 11.0 | 20.0 | 0.00 | 0.00 | 0.00 | 20 | 1015.4 |
| 20260509012003 | 66 | 221 | 11.0 | 20.0 | 0.00 | 0.00 | 0.00 | 21 | 1015.4 |
| 20260509011503 | 67 | 216 | 11.0 | 21.0 | 0.00 | 0.00 | 0.00 | 25 | 1015.4 |
| 20260509011003 | 67 | 220 | 11.0 | 21.0 | 0.00 | 0.00 | 0.00 | 26 | 1015.4 |
| 20260509010503 | 67 | 220 | 11.0 | 19.0 | 0.00 | 0.00 | 0.00 | 26 | 1015.5 |
| 20260509010003 | 67 | 217 | 12.0 | 19.0 | 0.00 | 0.00 | 0.00 | 25 | 1015.3 |
| 20260509005503 | 67 | 219 | 12.0 | 19.0 | 0.00 | 0.00 | 0.00 | 25 | 1015.3 |
| 20260509005003 | 67 | 218 | 12.0 | 20.0 | 0.00 | 0.00 | 0.00 | 25 | 1015.3 |
| 20260509004503 | 67 | 219 | 12.0 | 22.0 | 0.00 | 0.00 | 0.00 | 26 | 1015.3 |
| 20260509004003 | 67 | 221 | 13.0 | 22.0 | 0.00 | 0.00 | 0.00 | 26 | 1015.4 |
| 20260509003503 | 67 | 222 | 14.0 | 21.0 | 0.00 | 0.00 | 0.00 | 25 | 1015.4 |
| 20260509003003 | 67 | 222 | 14.0 | 25.0 | 0.00 | 0.00 | 0.00 | 26 | 1015.4 |
| 20260509002503 | 67 | 221 | 14.0 | 25.0 | 0.00 | 0.00 | 0.00 | 24 | 1015.4 |
| 20260509002003 | 68 | 219 | 12.0 | 24.0 | 0.00 | 0.00 | 0.00 | 24 | 1015.4 |
| 20260509001503 | 68 | 219 | 10.0 | 22.0 | 0.00 | 0.00 | 0.00 | 24 | 1015.3 |
| 20260509001003 | 67 | 223 | 10.0 | 20.0 | 0.00 | 0.00 | 0.00 | 27 | 1015.3 |
| 20260509000503 | 66 | 218 | 10.0 | 16.0 | 0.00 | 0.00 | 0.00 | 28 | 1015.4 |
| 20260509000004 | 66 | 212 | 11.0 | 16.0 | 0.00 | 0.00 | 0.00 | 31 | 1015.4 |
| 20260508235503 | 66 | 211 | 13.0 | 22.0 | 0.00 | 0.00 | 0.00 | 31 | 1015.4 |
| 20260508235003 | 66 | 211 | 13.0 | 22.0 | 0.00 | 0.00 | 0.00 | 31 | 1015.4 |
| 20260508234503 | 66 | 210 | 12.0 | 21.0 | 0.00 | 0.00 | 0.00 | 29 | 1015.3 |
| 20260508234218 | 66 | 212 | 11.0 | 21.0 | 0.00 | 0.00 | 0.00 | 29 | 1015.4 |
| 20260508233503 | 66 | 214 | 10.0 | 19.0 | 0.00 | 0.00 | 0.00 | 31 | 1015.6 |
| 20260508233218 | 66 | 214 | 10.0 | 19.0 | 0.00 | 0.00 | 0.00 | 32 | 1015.6 |
| 20260508232503 | 66 | 221 | 10.0 | 17.0 | 0.00 | 0.00 | 0.00 | 34 | 1015.7 |
| 20260508232003 | 66 | 219 | 9.0 | 16.0 | 0.00 | 0.00 | 0.00 | 34 | 1015.7 |
| 20260508231503 | 66 | 216 | 9.0 | 17.0 | 0.00 | 0.00 | 0.00 | 37 | 1015.8 |
| 20260508231003 | 66 | 223 | 10.0 | 17.0 | 0.00 | 0.00 | 0.00 | 38 | 1015.9 |
| 20260508230503 | 65 | 225 | 10.0 | 21.0 | 0.00 | 0.00 | 0.00 | 38 | 1015.9 |
| 20260508230218 | 65 | 224 | 10.0 | 21.0 | 0.00 | 0.00 | 0.00 | 38 | 1016.0 |
| 20260508225503 | 65 | 220 | 11.0 | 19.0 | 0.00 | 0.00 | 0.00 | 38 | 1015.9 |
| 20260508225003 | 66 | 220 | 11.0 | 18.0 | 0.00 | 0.00 | 0.00 | 37 | 1016.0 |
| 20260508224503 | 66 | 221 | 11.0 | 21.0 | 0.00 | 0.00 | 0.00 | 36 | 1016.0 |
| 20260508224003 | 67 | 223 | 10.0 | 21.0 | 0.00 | 0.00 | 0.00 | 35 | 1016.0 |
| 20260508223503 | 67 | 228 | 9.0 | 20.0 | 0.00 | 0.00 | 0.00 | 33 | 1016.0 |
| 20260508223218 | 67 | 227 | 9.0 | 21.0 | 0.00 | 0.00 | 0.00 | 32 | 1015.9 |
| 20260508222503 | 67 | 224 | 7.0 | 21.0 | 0.00 | 0.00 | 0.00 | 32 | 1016.0 |
| 20260508222003 | 66 | 227 | 7.0 | 17.0 | 0.00 | 0.00 | 0.00 | 31 | 1015.9 |
| 20260508221717 | 66 | 228 | 7.0 | 17.0 | 0.00 | 0.00 | 0.00 | 30 | 1016.0 |
| 20260508221003 | 66 | 227 | 6.0 | 17.0 | 0.00 | 0.00 | 0.00 | 31 | 1015.9 |
| 20260508220503 | 67 | 227 | 6.0 | 13.0 | 0.00 | 0.00 | 0.00 | 31 | 1016.0 |
| 20260508220004 | 67 | 225 | 5.0 | 13.0 | 0.00 | 0.00 | 0.00 | 31 | 1016.0 |
| 20260508215503 | 67 | 224 | 4.0 | 13.0 | 0.00 | 0.00 | 0.00 | 33 | 1016.0 |
| 20260508215003 | 66 | 232 | 4.0 | 13.0 | 0.00 | 0.00 | 0.00 | 34 | 1015.8 |
| 20260508214503 | 66 | 243 | 4.0 | 11.0 | 0.00 | 0.00 | 0.00 | 34 | 1015.9 |
| 20260508214003 | 66 | 240 | 3.0 | 10.0 | 0.00 | 0.00 | 0.00 | 34 | 1015.9 |
| 20260508213503 | 66 | 234 | 3.0 | 9.0 | 0.00 | 0.00 | 0.00 | 35 | 1015.9 |
| 20260508213003 | 66 | 237 | 4.0 | 9.0 | 0.00 | 0.00 | 0.00 | 35 | 1015.8 |
| 20260508212503 | 65 | 231 | 5.0 | 10.0 | 0.00 | 0.00 | 0.00 | 34 | 1015.9 |
| 20260508212003 | 65 | 228 | 6.0 | 10.0 | 0.00 | 0.00 | 0.00 | 31 | 1016.0 |
| 20260508211718 | 66 | 225 | 6.0 | 13.0 | 0.00 | 0.00 | 0.00 | 30 | 1016.0 |
| 20260508211217 | 66 | 227 | 5.0 | 13.0 | 0.00 | 0.00 | 0.00 | 29 | 1016.0 |
| 20260508210503 | 66 | 229 | 4.0 | 13.0 | 0.00 | 0.00 | 0.00 | 28 | 1015.8 |
| 20260508210003 | 66 | 230 | 4.0 | 13.0 | 0.00 | 0.00 | 0.00 | 27 | 1015.7 |
| 20260508205503 | 66 | 230 | 4.0 | 9.0 | 0.00 | 0.00 | 0.00 | 27 | 1015.8 |
| 20260508205003 | 66 | 234 | 4.0 | 9.0 | 0.00 | 0.00 | 0.00 | 28 | 1015.8 |
| 20260508204503 | 66 | 238 | 4.0 | 9.0 | 0.00 | 0.00 | 0.00 | 31 | 1016.0 |
| 20260508204003 | 66 | 233 | 4.0 | 9.0 | 0.00 | 0.00 | 0.00 | 33 | 1015.9 |
| 20260508203718 | 66 | 232 | 4.0 | 11.0 | 0.00 | 0.00 | 0.00 | 34 | 1015.8 |
| 20260508203003 | 66 | 237 | 4.0 | 12.0 | 0.00 | 0.00 | 0.00 | 32 | 1016.0 |
| 20260508202503 | 66 | 238 | 4.0 | 11.0 | 0.00 | 0.00 | 0.00 | 34 | 1016.0 |
| 20260508202003 | 65 | 235 | 4.0 | 11.0 | 0.00 | 0.00 | 0.00 | 37 | 1016.0 |
| 20260508201503 | 64 | 237 | 4.0 | 11.0 | 0.00 | 0.00 | 0.00 | 35 | 1016.0 |
| 20260508201003 | 64 | 243 | 4.0 | 11.0 | 0.00 | 0.00 | 0.00 | 33 | 1016.0 |
| 20260508200503 | 64 | 235 | 4.0 | 12.0 | 0.00 | 0.00 | 0.00 | 36 | 1016.0 |
| 20260508200003 | 64 | 231 | 4.0 | 12.0 | 0.00 | 0.00 | 0.00 | 34 | 1015.9 |
| 20260508195503 | 64 | 232 | 3.0 | 10.0 | 0.00 | 0.00 | 0.00 | 34 | 1015.9 |
| 20260508195217 | 65 | 234 | 3.0 | 10.0 | 0.00 | 0.00 | 0.00 | 31 | 1015.9 |
| 20260508194503 | 64 | 234 | 3.0 | 8.0 | 0.00 | 0.00 | 0.00 | 34 | 1015.9 |
| 20260508194003 | 64 | 237 | 4.0 | 9.0 | 0.00 | 0.00 | 0.00 | 34 | 1015.9 |
| 20260508193503 | 64 | 238 | 3.0 | 9.0 | 0.00 | 0.00 | 0.00 | 34 | 1016.0 |
| 20260508193003 | 64 | 240 | 4.0 | 8.0 | 0.00 | 0.00 | 0.00 | 34 | 1015.9 |
| 20260508192503 | 64 | 240 | 4.0 | 9.0 | 0.00 | 0.00 | 0.00 | 33 | 1015.9 |
| 20260508192003 | 64 | 237 | 4.0 | 11.0 | 0.00 | 0.00 | 0.00 | 34 | 1016.0 |
| 20260508191503 | 64 | 231 | 4.0 | 11.0 | 0.00 | 0.00 | 0.00 | 33 | 1016.0 |
| 20260508191003 | 64 | 226 | 4.0 | 11.0 | 0.00 | 0.00 | 0.00 | 32 | 1016.0 |
| 20260508190503 | 64 | 228 | 3.0 | 9.0 | 0.00 | 0.00 | 0.00 | 32 | 1016.0 |
| 20260508190218 | 64 | 238 | 3.0 | 9.0 | 0.00 | 0.00 | 0.00 | 33 | 1016.0 |
| 20260508185503 | 64 | 234 | 3.0 | 9.0 | 0.00 | 0.00 | 0.00 | 33 | 1016.1 |
| 20260508185003 | 64 | 227 | 3.0 | 9.0 | 0.00 | 0.00 | 0.00 | 36 | 1016.1 |
| 20260508184504 | 64 | 230 | 2.0 | 9.0 | 0.00 | 0.00 | 0.00 | 33 | 1016.1 |
| 20260508184003 | 65 | 234 | 2.0 | 7.0 | 0.00 | 0.00 | 0.00 | 35 | 1016.1 |
| 20260508183503 | 65 | 243 | 2.0 | 7.0 | 0.00 | 0.00 | 0.00 | 36 | 1016.1 |
| 20260508183003 | 65 | 238 | 2.0 | 6.0 | 0.00 | 0.00 | 0.00 | 40 | 1016.1 |
| 20260508182503 | 64 | 231 | 2.0 | 8.0 | 0.00 | 0.00 | 0.00 | 37 | 1016.1 |
| 20260508182218 | 64 | 230 | 2.0 | 8.0 | 0.00 | 0.00 | 0.00 | 36 | 1016.1 |
| 20260508181503 | 64 | 226 | 2.0 | 5.0 | 0.00 | 0.00 | 0.00 | 37 | 1016.1 |
| 20260508181003 | 64 | 227 | 2.0 | 5.0 | 0.00 | 0.00 | 0.00 | 37 | 1016.1 |
| 20260508180503 | 64 | 231 | 2.0 | 8.0 | 0.00 | 0.00 | 0.00 | 39 | 1016.1 |
| 20260508180218 | 64 | 227 | 2.0 | 8.0 | 0.00 | 0.00 | 0.00 | 37 | 1016.2 |
| 20260508175503 | 64 | 239 | 2.0 | 6.0 | 0.00 | 0.00 | 0.00 | 38 | 1016.1 |
| 20260508175003 | 64 | 280 | 2.0 | 6.0 | 0.00 | 0.00 | 0.00 | 36 | 1016.2 |
| 20260508174717 | 64 | 301 | 1.0 | 5.0 | 0.00 | 0.00 | 0.00 | 38 | 1016.1 |
| 20260508174218 | 64 | 323 | 1.0 | 5.0 | 0.00 | 0.00 | 0.00 | 37 | 1016.1 |
| 20260508173717 | 64 | 310 | 1.0 | 5.0 | 0.00 | 0.00 | 0.00 | 37 | 1016.0 |
| 20260508173003 | 64 | 313 | 1.0 | 4.0 | 0.00 | 0.00 | 0.00 | 36 | 1016.1 |
| 20260508172503 | 64 | 330 | 1.0 | 5.0 | 0.00 | 0.00 | 0.00 | 39 | 1016.0 |
| 20260508172003 | 63 | 330 | 1.0 | 5.0 | 0.00 | 0.00 | 0.00 | 45 | 1016.0 |
| 20260508171503 | 64 | 327 | 1.0 | 4.0 | 0.00 | 0.00 | 0.00 | 44 | 1016.0 |
| 20260508171218 | 63 | 333 | 1.0 | 6.0 | 0.00 | 0.00 | 0.00 | 49 | 1015.9 |
| 20260508170503 | 63 | 339 | 1.0 | 6.0 | 0.00 | 0.00 | 0.00 | 45 | 1015.8 |
| 20260508170218 | 63 | 334 | 1.0 | 5.0 | 0.00 | 0.00 | 0.00 | 51 | 1015.8 |
| 20260508165503 | 63 | 331 | 0.0 | 5.0 | 0.00 | 0.00 | 0.00 | 47 | 1015.9 |
| 20260508165218 | 63 | 337 | 0.0 | 4.0 | 0.00 | 0.00 | 0.00 | 44 | 1015.9 |
| 20260508164503 | 63 | 44 | 0.0 | 2.0 | 0.00 | 0.00 | 0.00 | 48 | 1015.8 |
| 20260508164003 | 63 | 0 | 0.0 | 2.0 | 0.00 | 0.00 | 0.00 | 47 | 1015.8 |
| 20260508163503 | 64 | 0 | 0.0 | 2.0 | 0.00 | 0.00 | 0.00 | 50 | 1015.8 |
| 20260508163003 | 63 | 0 | 0.0 | 2.0 | 0.00 | 0.00 | 0.00 | 48 | 1015.8 |
| 20260508162716 | 62 | 0 | 0.0 | 2.0 | 0.00 | 0.00 | 0.00 | 53 | 1015.8 |
| 20260508162005 | 62 | 0 | 0.0 | 2.0 | 0.00 | 0.00 | 0.00 | 50 | 1015.8 |
| 20260508161503 | 62 | 0 | 0.0 | 2.0 | 0.00 | 0.00 | 0.00 | 48 | 1015.8 |
| 20260508161003 | 62 | 0 | 0.0 | 2.0 | 0.00 | 0.00 | 0.00 | 47 | 1015.8 |
| 20260508160503 | 62 | 0 | 0.0 | 1.0 | 0.00 | 0.00 | 0.00 | 50 | 1015.8 |
| 20260508160003 | 61 | 0 | 0.0 | 0.0 | 0.00 | 0.00 | 0.00 | 53 | 1015.9 |
| 20260508155503 | 60 | 0 | 0.0 | 1.0 | 0.00 | 0.00 | 0.00 | 52 | 1015.8 |
| 20260508155003 | 60 | 0 | 0.0 | 1.0 | 0.00 | 0.00 | 0.00 | 57 | 1015.8 |
| 20260508154503 | 59 | 131 | 0.0 | 2.0 | 0.00 | 0.00 | 0.00 | 57 | 1015.8 |
| 20260508154003 | 58 | 97 | 0.0 | 2.0 | 0.00 | 0.00 | 0.00 | 60 | 1015.7 |
| 20260508153718 | 58 | 98 | 0.0 | 2.0 | 0.00 | 0.00 | 0.00 | 60 | 1015.7 |
| 20260508153003 | 58 | 0 | 0.0 | 2.0 | 0.00 | 0.00 | 0.00 | 64 | 1015.7 |
| 20260508152503 | 57 | 0 | 0.0 | 1.0 | 0.00 | 0.00 | 0.00 | 64 | 1015.6 |
| 20260508152003 | 57 | 0 | 0.0 | 0.0 | 0.00 | 0.00 | 0.00 | 64 | 1015.6 |
| 20260508151503 | 56 | 0 | 0.0 | 0.0 | 0.00 | 0.00 | 0.00 | 72 | 1015.6 |
| 20260508151003 | 56 | 0 | 0.0 | 0.0 | 0.00 | 0.00 | 0.00 | 73 | 1015.7 |
| 20260508150503 | 56 | 0 | 0.0 | 0.0 | 0.00 | 0.00 | 0.00 | 73 | 1015.7 |
| 20260508150004 | 55 | 0 | 0.0 | 1.0 | 0.00 | 0.00 | 0.00 | 76 | 1015.6 |
| 20260508145503 | 54 | 0 | 0.0 | 1.0 | 0.00 | 0.00 | 0.00 | 77 | 1015.6 |
| 20260508145003 | 53 | 0 | 0.0 | 1.0 | 0.00 | 0.00 | 0.00 | 77 | 1015.6 |
| 20260508144503 | 53 | 107 | 0.0 | 1.0 | 0.00 | 0.00 | 0.00 | 76 | 1015.6 |
| 20260508144003 | 53 | 108 | 0.0 | 2.0 | 0.00 | 0.00 | 0.00 | 77 | 1015.6 |
| 20260508143503 | 52 | 116 | 0.0 | 2.0 | 0.00 | 0.00 | 0.00 | 78 | 1015.6 |
| 20260508143003 | 52 | 115 | 0.0 | 3.0 | 0.00 | 0.00 | 0.00 | 77 | 1015.6 |
| 20260508142503 | 51 | 105 | 1.0 | 3.0 | 0.00 | 0.00 | 0.00 | 78 | 1015.6 |
| 20260508142003 | 50 | 100 | 1.0 | 2.0 | 0.00 | 0.00 | 0.00 | 78 | 1015.6 |
| 20260508141503 | 49 | 96 | 0.0 | 3.0 | 0.00 | 0.00 | 0.00 | 79 | 1015.5 |
| 20260508141004 | 48 | 89 | 1.0 | 3.0 | 0.00 | 0.00 | 0.00 | 81 | 1015.5 |
| 20260508140503 | 48 | 94 | 1.0 | 4.0 | 0.00 | 0.00 | 0.00 | 83 | 1015.5 |
| 20260508140003 | 47 | 98 | 0.0 | 4.0 | 0.00 | 0.00 | 0.00 | 82 | 1015.4 |
| 20260508135503 | 46 | 0 | 0.0 | 2.0 | 0.00 | 0.00 | 0.00 | 84 | 1015.5 |
| 20260508135216 | 45 | 0 | 0.0 | 2.0 | 0.00 | 0.00 | 0.00 | 86 | 1015.5 |
| 20260508134717 | 43 | 0 | 0.0 | 1.0 | 0.00 | 0.00 | 0.00 | 88 | 1015.5 |
| 20260508134003 | 41 | 0 | 0.0 | 0.0 | 0.00 | 0.00 | 0.00 | 89 | 1015.5 |
| 20260508133503 | 41 | 0 | 0.0 | 0.0 | 0.00 | 0.00 | 0.00 | 89 | 1015.5 |
| 20260508133003 | 40 | 0 | 0.0 | 0.0 | 0.00 | 0.00 | 0.00 | 89 | 1015.4 |
| 20260508132717 | 40 | 0 | 0.0 | 0.0 | 0.00 | 0.00 | 0.00 | 90 | 1015.4 |
| 20260508132003 | 38 | 0 | 0.0 | 0.0 | 0.00 | 0.00 | 0.00 | 91 | 1015.3 |
| 20260508131503 | 38 | 0 | 0.0 | 0.0 | 0.00 | 0.00 | 0.00 | 92 | 1015.3 |
| 20260508131218 | 38 | 0 | 0.0 | 0.0 | 0.00 | 0.00 | 0.00 | 92 | 1015.3 |
| 20260508130509 | 37 | 0 | 0.0 | 1.0 | 0.00 | 0.00 | 0.00 | 91 | 1015.3 |
| 20260508130004 | 36 | 0 | 0.0 | 1.0 | 0.00 | 0.00 | 0.00 | 91 | 1015.2 |
| 20260508125503 | 36 | 0 | 0.0 | 0.0 | 0.00 | 0.00 | 0.00 | 92 | 1015.2 |
| 20260508125003 | 36 | 0 | 0.0 | 0.0 | 0.00 | 0.00 | 0.00 | 91 | 1015.2 |
| 20260508124503 | 36 | 0 | 0.0 | 0.0 | 0.00 | 0.00 | 0.00 | 91 | 1015.2 |
| 20260508124003 | 36 | 0 | 0.0 | 0.0 | 0.00 | 0.00 | 0.00 | 91 | 1015.2 |
| 20260508123503 | 36 | 0 | 0.0 | 0.0 | 0.00 | 0.00 | 0.00 | 91 | 1015.1 |
| 20260508123003 | 36 | 0 | 0.0 | 0.0 | 0.00 | 0.00 | 0.00 | 91 | 1015.1 |
| 20260508122503 | 36 | 0 | 0.0 | 0.0 | 0.00 | 0.00 | 0.00 | 92 | 1015.1 |
| 20260508122003 | 36 | 0 | 0.0 | 0.0 | 0.00 | 0.00 | 0.00 | 92 | 1015.1 |
| 20260508121503 | 36 | 0 | 0.0 | 0.0 | 0.00 | 0.00 | 0.00 | 92 | 1015.1 |
| 20260508121218 | 36 | 0 | 0.0 | 0.0 | 0.00 | 0.00 | 0.00 | 91 | 1015.1 |
| 20260508120503 | 36 | 0 | 0.0 | 0.0 | 0.00 | 0.00 | 0.00 | 91 | 1015.1 |
| 20260508120003 | 36 | 0 | 0.0 | 1.0 | 0.00 | 0.00 | 0.00 | 91 | 1015.1 |
| 20260508115503 | 37 | 0 | 0.0 | 1.0 | 0.00 | 0.00 | 0.00 | 91 | 1015.0 |
| 20260508115003 | 37 | 0 | 0.0 | 1.0 | 0.00 | 0.00 | 0.00 | 91 | 1015.0 |
| 20260508114503 | 37 | 0 | 0.0 | 0.0 | 0.00 | 0.00 | 0.00 | 91 | 1014.9 |
| 20260508114003 | 37 | 0 | 0.0 | 0.0 | 0.00 | 0.00 | 0.00 | 91 | 1014.9 |
| 20260508113717 | 37 | 0 | 0.0 | 0.0 | 0.00 | 0.00 | 0.00 | 91 | 1015.0 |
| 20260508113004 | 37 | 0 | 0.0 | 0.0 | 0.00 | 0.00 | 0.00 | 91 | 1015.0 |
| 20260508112503 | 37 | 0 | 0.0 | 0.0 | 0.00 | 0.00 | 0.00 | 91 | 1014.9 |
| 20260508112217 | 37 | 0 | 0.0 | 0.0 | 0.00 | 0.00 | 0.00 | 92 | 1015.0 |
| 20260508111716 | 37 | 0 | 0.0 | 0.0 | 0.00 | 0.00 | 0.00 | 92 | 1014.9 |
| 20260508111003 | 37 | 0 | 0.0 | 0.0 | 0.00 | 0.00 | 0.00 | 92 | 1014.9 |
| 20260508110504 | 37 | 0 | 0.0 | 0.0 | 0.00 | 0.00 | 0.00 | 92 | 1014.9 |
| 20260508110003 | 36 | 0 | 0.0 | 0.0 | 0.00 | 0.00 | 0.00 | 92 | 1014.9 |
| 20260508105503 | 36 | 0 | 0.0 | 0.0 | 0.00 | 0.00 | 0.00 | 91 | 1014.9 |
| 20260508105003 | 36 | 0 | 0.0 | 0.0 | 0.00 | 0.00 | 0.00 | 91 | 1014.9 |
| 20260508104503 | 36 | 0 | 0.0 | 0.0 | 0.00 | 0.00 | 0.00 | 91 | 1015.0 |
| 20260508104217 | 36 | 0 | 0.0 | 0.0 | 0.00 | 0.00 | 0.00 | 90 | 1014.9 |
| 20260508103504 | 36 | 0 | 0.0 | 1.0 | 0.00 | 0.00 | 0.00 | 90 | 1014.9 |
| 20260508103003 | 36 | 0 | 0.0 | 1.0 | 0.00 | 0.00 | 0.00 | 89 | 1014.9 |
| 20260508102503 | 36 | 0 | 0.0 | 1.0 | 0.00 | 0.00 | 0.00 | 88 | 1014.9 |
| 20260508102003 | 37 | 0 | 0.0 | 0.0 | 0.00 | 0.00 | 0.00 | 89 | 1014.9 |
| 20260508101503 | 37 | 0 | 0.0 | 0.0 | 0.00 | 0.00 | 0.00 | 89 | 1014.9 |
| 20260508101003 | 38 | 0 | 0.0 | 0.0 | 0.00 | 0.00 | 0.00 | 89 | 1014.8 |
| 20260508100503 | 38 | 0 | 0.0 | 0.0 | 0.00 | 0.00 | 0.00 | 90 | 1014.8 |
| 20260508100003 | 38 | 0 | 0.0 | 0.0 | 0.00 | 0.00 | 0.00 | 90 | 1014.7 |
| 20260508095503 | 38 | 0 | 0.0 | 0.0 | 0.00 | 0.00 | 0.00 | 90 | 1014.7 |
| 20260508095003 | 39 | 0 | 0.0 | 0.0 | 0.00 | 0.00 | 0.00 | 90 | 1014.7 |
| 20260508094503 | 39 | 0 | 0.0 | 0.0 | 0.00 | 0.00 | 0.00 | 90 | 1014.7 |
| 20260508094003 | 39 | 0 | 0.0 | 0.0 | 0.00 | 0.00 | 0.00 | 90 | 1014.7 |
| 20260508093503 | 39 | 0 | 0.0 | 0.0 | 0.00 | 0.00 | 0.00 | 89 | 1014.7 |
| 20260508093003 | 39 | 0 | 0.0 | 1.0 | 0.00 | 0.00 | 0.00 | 88 | 1014.7 |
| 20260508092503 | 39 | 0 | 0.0 | 1.0 | 0.00 | 0.00 | 0.00 | 88 | 1014.7 |
| 20260508092003 | 40 | 0 | 0.0 | 1.0 | 0.00 | 0.00 | 0.00 | 88 | 1014.6 |
| 20260508091503 | 40 | 0 | 0.0 | 0.0 | 0.00 | 0.00 | 0.00 | 89 | 1014.7 |
| 20260508091009 | 40 | 0 | 0.0 | 0.0 | 0.00 | 0.00 | 0.00 | 89 | 1014.7 |
| 20260508090503 | 40 | 0 | 0.0 | 0.0 | 0.00 | 0.00 | 0.00 | 88 | 1014.6 |
| 20260508090003 | 40 | 0 | 0.0 | 0.0 | 0.00 | 0.00 | 0.00 | 88 | 1014.7 |
| 20260508085503 | 40 | 0 | 0.0 | 0.0 | 0.00 | 0.00 | 0.00 | 87 | 1014.7 |
| 20260508085003 | 41 | 0 | 0.0 | 0.0 | 0.00 | 0.00 | 0.00 | 86 | 1014.7 |
| 20260508084503 | 41 | 0 | 0.0 | 0.0 | 0.00 | 0.00 | 0.00 | 86 | 1014.8 |
| 20260508084003 | 42 | 0 | 0.0 | 0.0 | 0.00 | 0.00 | 0.00 | 84 | 1014.9 |
| 20260508083503 | 42 | 0 | 0.0 | 0.0 | 0.00 | 0.00 | 0.00 | 84 | 1014.9 |
| 20260508083003 | 42 | 0 | 0.0 | 0.0 | 0.00 | 0.00 | 0.00 | 84 | 1014.8 |
| 20260508082503 | 43 | 0 | 0.0 | 0.0 | 0.00 | 0.00 | 0.00 | 83 | 1014.7 |